Portland Weather Center

Moon Phase Calendar



Online Cameras

 


      

Current Conditions in Portland
12/5/2020 7:42:09 PM

34°F
Feels Like 13
Snow
Humidity
100%
Pressure
29.26"
Wind
31.1 mph (N)
Dew Point
34°F
UV Index
0/10 (Low)
Visibility
3 mi

Hourly Forecast

Date & Time Sat, Dec 5
7:00 PM
Sat, Dec 5
8:00 PM
Sat, Dec 5
9:00 PM
Sat, Dec 5
10:00 PM
Sat, Dec 5
11:00 PM
Sun, Dec 6
12:00 AM
Sun, Dec 6
1:00 AM
Sun, Dec 6
2:00 AM
Sun, Dec 6
3:00 AM
Sun, Dec 6
4:00 AM
Sun, Dec 6
5:00 AM
Sun, Dec 6
6:00 AM
Sun, Dec 6
7:00 AM
Sun, Dec 6
8:00 AM
Sun, Dec 6
9:00 AM
Sun, Dec 6
10:00 AM
Sun, Dec 6
11:00 AM
Sun, Dec 6
12:00 PM
Sun, Dec 6
1:00 PM
Sun, Dec 6
2:00 PM
Sun, Dec 6
3:00 PM
Sun, Dec 6
4:00 PM
Sun, Dec 6
5:00 PM
Sun, Dec 6
6:00 PM
Sun, Dec 6
7:00 PM
Sun, Dec 6
8:00 PM
Sun, Dec 6
9:00 PM
Sun, Dec 6
10:00 PM
Sun, Dec 6
11:00 PM
Mon, Dec 7
12:00 AM
Mon, Dec 7
1:00 AM
Mon, Dec 7
2:00 AM
Mon, Dec 7
3:00 AM
Mon, Dec 7
4:00 AM
Mon, Dec 7
5:00 AM
Mon, Dec 7
6:00 AM
Mon, Dec 7
7:00 AM
Mon, Dec 7
8:00 AM
Mon, Dec 7
9:00 AM
Mon, Dec 7
10:00 AM
Mon, Dec 7
11:00 AM
Mon, Dec 7
12:00 PM
Mon, Dec 7
1:00 PM
Mon, Dec 7
2:00 PM
Mon, Dec 7
3:00 PM
Mon, Dec 7
4:00 PM
Mon, Dec 7
5:00 PM
Mon, Dec 7
6:00 PM
Condition
Rain

Rain

Rain

Rain

Rain

Snow

Snow

Snow

Snow

Snow

Clouds

Clouds

Clouds

Clouds

Clouds

Clouds

Clouds

Clouds

Clouds

Clouds

Clouds

Clouds

Clouds

Clouds

Clouds

Clear

Clear

Clear

Clouds

Clouds

Clouds

Clouds

Clouds

Clouds

Clouds

Clouds

Clouds

Clouds

Clouds

Clouds

Clouds

Clouds

Clouds

Clouds

Clouds

Clouds

Clouds

Clouds
Temperature 34°F36°F36°F36°F35°F34°F33°F32°F32°F32°F32°F31°F30°F30°F32°F33°F34°F34°F35°F35°F34°F32°F31°F29°F28°F27°F28°F28°F28°F28°F28°F28°F27°F27°F26°F26°F26°F26°F28°F30°F31°F31°F32°F32°F32°F31°F30°F30°F
Feels Like 13°F16°F18°F18°F19°F17°F16°F16°F16°F17°F19°F19°F19°F20°F21°F22°F24°F24°F25°F26°F26°F24°F23°F21°F20°F20°F20°F21°F21°F20°F20°F20°F20°F19°F19°F19°F19°F20°F20°F23°F25°F26°F27°F27°F27°F25°F24°F22°F
Cloudiness 90%95%98%99%100%100%100%100%100%100%100%100%100%100%99%97%97%97%94%27%29%42%48%50%48%2%2%5%13%20%28%66%53%40%46%49%49%41%29%22%17%18%18%22%42%61%70%76%
Visibility 2 mi6 mi6 mi6 mi1 mi2 mi0 mi0 mi2 mi4 mi6 mi6 mi6 mi6 mi6 mi6 mi6 mi6 mi6 mi6 mi6 mi6 mi6 mi6 mi6 mi6 mi6 mi6 mi6 mi6 mi6 mi6 mi6 mi6 mi6 mi6 mi6 mi6 mi6 mi6 mi6 mi6 mi6 mi6 mi6 mi6 mi6 mi6 mi
Precipitation 100%100%100%100%100%100%100%96%96%96%76%76%72%3%0%0%0%0%0%0%0%0%0%0%0%0%0%0%0%0%0%0%0%0%0%0%0%0%0%0%0%0%0%7%7%5%5%5%
Humidity 100%95%93%93%94%93%95%96%96%96%94%93%93%93%93%90%88%87%86%85%87%92%93%94%94%95%95%95%95%95%95%95%95%94%94%94%94%94%93%92%92%92%91%90%92%94%95%94%
Dew Point 34°F34°F34°F34°F34°F33°F32°F30°F29°F28°F26°F24°F24°F24°F25°F26°F27°F27°F28°F28°F27°F25°F24°F24°F23°F23°F23°F24°F24°F24°F24°F23°F23°F22°F21°F21°F21°F21°F21°F22°F23°F24°F24°F24°F24°F25°F25°F25°F
Pressure 29.26"29.23"29.21"29.21"29.21"29.23"29.26"29.29"29.32"29.38"29.41"29.44"29.44"29.47"29.5"29.5"29.5"29.5"29.5"29.53"29.53"29.56"29.59"29.59"29.62"29.62"29.62"29.62"29.65"29.65"29.65"29.65"29.65"29.68"29.65"29.68"29.71"29.71"29.71"29.71"29.71"29.68"29.65"29.65"29.68"29.68"29.71"29.71"
Wind Speed 31.3 mph29.6 mph26.9 mph25.4 mph23.8 mph23.4 mph24.3 mph23.1 mph21.5 mph19.4 mph16.4 mph13.8 mph12.4 mph12.3 mph12.4 mph12.4 mph11.3 mph11 mph10.6 mph9.6 mph8.1 mph7.4 mph7.3 mph7.6 mph6.4 mph5.8 mph6.3 mph5.8 mph6 mph6.4 mph6.3 mph6.2 mph5.9 mph5.9 mph5.5 mph4.4 mph4.1 mph4.4 mph5.6 mph3.8 mph3.4 mph3.4 mph3 mph2.2 mph2.4 mph3.7 mph4.7 mph6 mph
Wind
Direction

N
348°
NNW
340°
NNW
336°
NNW
330°
NNW
324°
NW
324°
NW
323°
NW
318°
NW
315°
NW
311°
NW
303°
WNW
299°
WNW
298°
WNW
298°
WNW
302°
WNW
300°
WNW
301°
WNW
297°
WNW
300°
WNW
308°
NW
304°
NW
301°
WNW
293°
WNW
285°
WNW
270°
W
268°
W
278°
W
284°
WNW
290°
WNW
305°
NW
312°
NW
311°
NW
314°
NW
322°
NW
317°
NW
301°
WNW
326°
NW
339°
NNW
328°
NNW
304°
NW
307°
NW
315°
NW
326°
NW
345°
NNW
349°
N
356°
N

N

Daily Forecast

Date High Low Precip. Humidity
Today
Dec 5

Snow
42 °F
34 °F
100%
91%
Sunday
Dec 6

Snow
35 °F
27 °F
100%
88%
Monday
Dec 7

Clouds
32 °F
26 °F
27%
92%
Tuesday
Dec 8

Clear
33 °F
26 °F
14%
90%
Wednesday
Dec 9

Clouds
34 °F
25 °F
0%
92%
Thursday
Dec 10

Rain
44 °F
34 °F
28%
79%
Friday
Dec 11

Clouds
41 °F
34 °F
0%
77%
Saturday
Dec 12

Rain
44 °F
34 °F
100%
79%
Sunday
Dec 13

Rain
50 °F
42 °F
100%
78%
Monday
Dec 14

Rain
58 °F
29 °F
100%
61%
Tuesday
Dec 15

Clear
30 °F
26 °F
0%
77%
Wednesday
Dec 16

Clear
33 °F
28 °F
0%
84%
Thursday
Dec 17

Clouds
40 °F
32 °F
0%
72%
Friday
Dec 18

Clouds
42 °F
34 °F
0%
77%
Saturday
Dec 19

Clouds
53 °F
44 °F
0%
78%
Sunday
Dec 20

Rain
56 °F
44 °F
93%
94%


Temperature 8-14 Day Outlook



Precipitation 8-14 Day Outlook




Quick Links
Portland News
Portland Photos
Portland Videos




About Us
Contact Us
Site Map
Search Site
Advertise With Us
   
Portland.USCoast.info
THE PORTLAND WEBSITE

Copyright 2020, Coastal Town
Privacy    |    Legal